Location: Great Malvern
(52.1167°N, 2.3167°W)
Time: 15:40:27
(UTC+00:00)

NOSS 3-2 (C) - Pass Details

Date: 18 September 2020
Orbit: 795 x 1418 km, 63.4° (Epoch: 02 October)

Event Time Altitude Azimuth Distance (km) Brightness Sun altitude
Rises 20:32:09 0° 314° (NW) 3,904 8.1 -20.6°
Reaches altitude 10° 20:34:40 10° 312° (NW) 3,029 7.2 -20.9°
Maximum altitude 20:42:00 73° 230° (SW) 1,314 4.1 -21.9°
Enters shadow 20:46:12 32° 154° (SSE) 2,095 4.7 -22.4°
